Regional Weather Roundup
Issued by NWS Upton, NY

Current Version | Previous Version | Graphics & Text | Print | Product List | Glossary Off
Versions: 1 2 3 4 5 6 7 8 9 10 11 12 13 14 15 16 17 18 19 20 21 22 23 24 25 26 27 28 29 30 31 32 33 34 35 36 37 38 39 40 41 42 43 44 45 46 47 48 49 50
000 ASUS41 KOKX 201305 RWROKX REGIONAL WEATHER ROUNDUP NATIONAL WEATHER SERVICE NEW YORK NY 800 AM EST SAT DEC 20 2014 NOTE: "FAIR" INDICATES FEW OR NO CLOUDS BELOW 12,000 FEET WITH NO SIGNIFICANT WEATHER AND/OR OBSTRUCTIONS TO VISIBILITY. NYZ071-072-176-178-NJZ106-104-201400- NEW YORK CITY METRO AREA CITY SKY/WX TMP DP RH WIND PRES REMARKS CENTRAL PARK CLOUDY 31 19 61 VRB5 30.28S WCI 26 LAGUARDIA APRT CLOUDY 31 21 66 N10 30.27S WCI 22 KENNEDY INTL CLOUDY 32 19 58 N12 30.28S WCI 23 NEWARK/LIBERTY CLOUDY 31 21 66 N8 30.27S WCI 23 BRNX BOT. GARD N/A N/A N/A N/A N5 30.30R TETERBORO CLOUDY 31 19 61 NE9 30.27S WCI 23 $$ NYZ177-179-078>081-201400- LONG ISLAND NEW YORK CITY SKY/WX TMP DP RH WIND PRES REMARKS FARMINGDALE CLOUDY 31 21 66 N8 30.26F WCI 23 ISLIP CLOUDY 32 21 64 N9 30.24S WCI 24 SHIRLEY CLOUDY 31 22 69 N3 30.27R WESTHAMPTON CLOUDY 31 21 66 N8 30.27S WCI 23 MONTAUK POINT N/A 33 24 69 NW5 30.27R WCI 29 $$ NYZ052-065-067-201400- HUDSON VALLEY CITY SKY/WX TMP DP RH WIND PRES REMARKS WHITE PLAINS CLOUDY 28 19 69 N6 30.25R WCI 22 NEWBURGH CLOUDY 27 21 80 NE12 30.28R WCI 16 MONTGOMERY CLOUDY 28 19 69 NE8 30.26S WCI 20 POUGHKEEPSIE CLOUDY 28 18 66 NE7 30.29R WCI 21 ALBANY PTCLDY 23 15 71 N6 30.32R WCI 16 $$ NJZ001-105-106-008-010-013-015-019>022-104-201400- NEW JERSEY CITY SKY/WX TMP DP RH WIND PRES REMARKS NEWARK/LIBERTY CLOUDY 31 21 66 N8 30.27S WCI 23 TETERBORO CLOUDY 31 19 61 NE9 30.27S WCI 23 CALDWELL CLOUDY 30 21 69 NE3 30.27S MORRISTOWN CLOUDY 30 23 74 N6 30.27S WCI 24 SOMERVILLE CLOUDY 31 20 63 N3 30.26S SUSSEX CLOUDY 29 20 69 N5 30.25S WCI 24 ANDOVER N/A 28 19 69 N5 30.25R WCI 23 TRENTON CLOUDY 30 19 63 N3 30.28R MILLVILLE CLOUDY 31 25 78 CALM 30.28R ATLANTIC CITY CLOUDY 30 24 78 NW3 30.28R WRIGHTSTOWN CLOUDY 31 21 67 NW7 30.26R WCI 24 TOMS RIVER CLOUDY 30 21 69 N7 30.27R WCI 23 BELMAR CLOUDY 30 18 59 NW6 30.26R WCI 24 $$ PAZ047>061-062-071-201400- EASTERN PENNSYLVANIA CITY SKY/WX TMP DP RH WIND PRES REMARKS PHILADELPHIA CLOUDY 33 21 61 NW8 30.30R WCI 26 ALLENTOWN CLOUDY 31 20 63 N7 30.26R WCI 24 SCRANTON CLOUDY 30 21 69 N5 30.23R WCI 25 $$ CTZ002-004>006-009-010-012-RIZ004-006-007-MAZ004-011-015-201400- SOUTHERN NEW ENGLAND IN CT CITY SKY/WX TMP DP RH WIND PRES REMARKS BRADLEY INTL MOCLDY 27 18 69 N9 30.27R WCI 18 HARTFORD CLOUDY 27 18 69 NE8 30.29R WCI 19 DANBURY CLEAR 26 17 68 NW6 30.27R WCI 19 WTRBRY/OXFORD MOCLDY 25 14 63 N7 30.24S WCI 17 BRIDGEPORT CLEAR 29 21 72 NW5 30.28R WCI 24 MERIDEN PTCLDY 27 19 72 N6 30.28R WCI 20 NEW HAVEN PTCLDY 28 20 71 N5 30.27S WCI 23 CHESTER CLOUDY 28 21 74 N7 30.25R WCI 21 GROTON CLOUDY 28 21 75 N9 30.26R WCI 19 WILLIMANTIC CLOUDY 28 21 75 N3 30.27R IN RI CITY SKY/WX TMP DP RH WIND PRES REMARKS PROVIDENCE CLOUDY 30 21 69 N10 30.27R WCI 21 BLOCK ISLAND CLOUDY 32 23 69 N3 30.24R WESTERLY CLOUDY 29 22 75 N5 30.26R WCI 24 IN MA CITY SKY/WX TMP DP RH WIND PRES REMARKS BOSTON PTCLDY 28 20 71 NW10 30.28R WCI 19 WORCESTER CLOUDY 25 17 72 N7 30.23R WCI 17 WESTFIELD CLOUDY 25 17 72 N6 30.28R WCI 18 PROVINCETOWN CLOUDY 37 27 65 N6 30.24R WCI 33 NANTUCKET CLOUDY 38 32 79 NW8 30.22R WCI 32 $$ ANZ330-335-338-340-345-350-353-355-201400- COASTAL MARINE OBSERVATIONS STATION/POSITION TIME SKY/WX TEMP WIND PRES VSBY WAVE AIR SEA DIR/SP/G HT/PER (UTC) (F) (DEG/KT/KT) (MB) (MI) (FT/S) NY HARB ENTRANCE 1300 33 46 360/ 10/ 14 1025.0 1/ 3 4S FIRE IS 1300 46 N/A 1/11 20S FIRE ISLAND 1200 35 49 1024.6 2/ 3 23SW MTP 1300 N/A 2/11 HUDSON CANYON 1300 38 55 340/ 8/ 12 1023.3 2/ 4 EXECUTION ROCKS NOT AVBL WESTERN LI SOUND NOT AVBL CENTRAL LI SOUND NOT AVBL EASTERN LI SOUND NOT AVBL ROBBINS REEF 1300 32 170/ 5/ 9 1023.6 $$ >>>>>>>>>>>>>>>>>>>>>>>>>>>> KEY <<<<<<<<<<<<<<<<<<<<<<<<<<< > < > SKY/WX - SKY CONDITION/PRESENT WEATHER < > TMP - TEMPERATURE IN FAHRENHEIT < > DP - DEWPOINT IN FAHRENHEIT < > RH - RELATIVE HUMIDITY IN PERCENT < > WIND - DIRECTION AND SPEED IN MPH < > PRES - MEAN SEA LEVEL PRESSURE IN INCHES OF HG < > WCI - WIND CHILL INDEX < > VSB - VISIBILITY IN MILES < > HX - HEAT INDEX < > TC - TEMPERATURE IN CELSIUS < > VRB - VARIABLE WIND DIRECTION < > < >>>>>>>>>>>>>>>>>>>>>>>>>>>> KEY <<<<<<<<<<<<<<<<<<<<<<<<<<<

USA.gov is the U.S. government's official web portal to all federal, state and local government web resources and services.